Time,TemperatureF,DewpointF,PressureIn,WindDirection,WindDirectionDegrees,WindSpeedMPH,WindSpeedGustMPH,Humidity,HourlyPrecipIn,Conditions,Clouds,dailyrainin,SoftwareType,DateUTC
2013-08-15 00:03:00,61.0,32.4,29.96,SSW,193,0.0,0.0,34,0.00,,---,0.00,VWS V14.01,2013-08-15 06:03:00,
2013-08-15 00:08:00,60.3,31.8,29.96,SSW,193,0.0,0.0,34,0.00,,---,0.00,VWS V14.01,2013-08-15 06:08:00,
2013-08-15 00:13:00,59.7,32.0,29.96,SSW,193,0.0,0.0,35,0.00,,---,0.00,VWS V14.01,2013-08-15 06:13:00,
2013-08-15 00:18:00,59.4,31.7,29.96,SSW,193,0.0,0.0,35,0.00,,---,0.00,VWS V14.01,2013-08-15 06:18:00,
2013-08-15 00:23:00,59.4,31.7,29.96,SSW,197,0.0,0.0,35,0.00,,---,0.00,VWS V14.01,2013-08-15 06:23:00,
2013-08-15 00:28:00,59.2,31.6,29.96,SSW,197,0.0,0.0,35,0.00,,---,0.00,VWS V14.01,2013-08-15 06:28:00,
2013-08-15 00:33:00,59.2,31.6,29.96,SSW,197,0.0,0.0,35,0.00,,---,0.00,VWS V14.01,2013-08-15 06:33:00,
2013-08-15 00:38:00,59.2,31.6,29.96,SSW,197,0.0,0.0,35,0.00,,---,0.00,VWS V14.01,2013-08-15 06:38:00,
2013-08-15 00:43:00,59.2,31.6,29.96,SSW,197,0.0,0.0,35,0.00,,---,0.00,VWS V14.01,2013-08-15 06:43:00,
2013-08-15 00:48:00,59.2,31.6,29.96,SSW,197,0.0,0.0,35,0.00,,---,0.00,VWS V14.01,2013-08-15 06:48:00,
2013-08-15 00:53:00,58.6,31.8,29.96,SSW,197,0.0,0.0,36,0.00,,---,0.00,VWS V14.01,2013-08-15 06:53:00,
2013-08-15 00:58:00,58.1,31.3,29.96,SSW,197,0.0,0.0,36,0.00,,---,0.00,VWS V14.01,2013-08-15 06:58:00,
2013-08-15 01:03:00,57.9,31.1,29.96,SSW,197,0.0,0.0,36,0.00,,---,0.00,VWS V14.01,2013-08-15 07:03:00,
2013-08-15 01:08:00,58.3,30.8,29.96,SSW,197,0.0,0.0,35,0.00,,---,0.00,VWS V14.01,2013-08-15 07:08:00,
2013-08-15 01:13:00,58.5,30.9,29.96,SSW,197,0.0,0.0,35,0.00,,---,0.00,VWS V14.01,2013-08-15 07:13:00,
2013-08-15 01:18:00,58.5,31.6,29.96,SSW,197,0.0,0.0,36,0.00,,---,0.00,VWS V14.01,2013-08-15 07:18:00,
2013-08-15 01:23:00,58.3,31.5,29.96,SSW,197,0.0,0.0,36,0.00,,---,0.00,VWS V14.01,2013-08-15 07:23:00,
2013-08-15 01:28:00,58.3,31.5,29.96,SSW,197,0.0,0.0,36,0.00,,---,0.00,VWS V14.01,2013-08-15 07:28:00,
2013-08-15 01:33:00,58.3,31.5,29.96,SSW,197,0.0,0.0,36,0.00,,---,0.00,VWS V14.01,2013-08-15 07:33:00,
2013-08-15 01:38:00,57.9,30.5,29.96,West,269,2.2,3.6,35,0.00,,---,0.00,VWS V14.01,2013-08-15 07:38:00,
2013-08-15 01:43:00,58.1,30.6,29.96,West,269,0.0,3.6,35,0.00,,---,0.00,VWS V14.01,2013-08-15 07:43:00,
2013-08-15 01:48:00,58.1,30.6,29.96,West,269,0.0,0.0,35,0.00,,---,0.00,VWS V14.01,2013-08-15 07:48:00,
2013-08-15 01:53:00,57.9,30.5,29.96,WSW,253,0.0,0.0,35,0.00,,---,0.00,VWS V14.01,2013-08-15 07:53:00,
2013-08-15 01:58:00,57.9,30.5,29.96,WSW,253,0.0,0.0,35,0.00,,---,0.00,VWS V14.01,2013-08-15 07:58:00,
2013-08-15 02:03:00,58.3,30.8,29.96,WSW,253,0.0,0.0,35,0.00,,---,0.00,VWS V14.01,2013-08-15 08:03:00,
2013-08-15 02:08:00,58.1,30.6,29.96,WSW,253,0.0,0.0,35,0.00,,---,0.00,VWS V14.01,2013-08-15 08:08:00,
2013-08-15 02:13:00,57.9,30.5,29.96,WSW,253,0.0,0.0,35,0.00,,---,0.00,VWS V14.01,2013-08-15 08:13:00,
2013-08-15 02:18:00,57.7,30.3,29.96,WSW,253,0.0,0.0,35,0.00,,---,0.00,VWS V14.01,2013-08-15 08:18:00,
2013-08-15 02:23:00,57.7,31.0,29.96,WSW,253,0.0,0.0,36,0.00,,---,0.00,VWS V14.01,2013-08-15 08:23:00,
2013-08-15 02:28:00,57.4,30.0,29.96,WSW,253,0.0,0.0,35,0.00,,---,0.00,VWS V14.01,2013-08-15 08:28:00,
2013-08-15 02:33:00,57.4,30.0,29.96,WSW,253,0.0,0.0,35,0.00,,---,0.00,VWS V14.01,2013-08-15 08:33:00,
2013-08-15 02:38:00,57.0,30.4,29.96,South,182,2.7,3.6,36,0.00,,---,0.00,VWS V14.01,2013-08-15 08:38:00,
2013-08-15 02:43:00,56.7,30.0,29.96,South,183,2.7,3.6,36,0.00,,---,0.00,VWS V14.01,2013-08-15 08:43:00,
2013-08-15 02:48:00,56.5,29.9,29.96,South,183,0.0,2.2,36,0.00,,---,0.00,VWS V14.01,2013-08-15 08:48:00,
2013-08-15 02:53:00,56.5,29.9,29.96,South,183,0.0,2.2,36,0.00,,---,0.00,VWS V14.01,2013-08-15 08:53:00,
2013-08-15 02:58:00,56.3,29.7,29.96,South,183,0.0,2.2,36,0.00,,---,0.00,VWS V14.01,2013-08-15 08:58:00,
2013-08-15 03:03:00,56.3,29.7,29.96,South,183,0.0,0.0,36,0.00,,---,0.00,VWS V14.01,2013-08-15 09:03:00,
2013-08-15 03:08:00,56.3,29.7,29.96,South,183,0.0,0.0,36,0.00,,---,0.00,VWS V14.01,2013-08-15 09:08:00,
2013-08-15 03:13:00,56.3,29.7,29.96,South,183,0.0,0.0,36,0.00,,---,0.00,VWS V14.01,2013-08-15 09:13:00,
2013-08-15 03:18:00,56.3,29.7,29.96,South,183,0.0,0.0,36,0.00,,---,0.00,VWS V14.01,2013-08-15 09:18:00,
2013-08-15 03:23:00,56.3,29.7,29.96,South,183,0.0,0.0,36,0.00,,---,0.00,VWS V14.01,2013-08-15 09:23:00,
2013-08-15 03:28:00,56.1,29.5,29.96,South,190,0.0,0.0,36,0.00,,---,0.00,VWS V14.01,2013-08-15 09:28:00,
2013-08-15 03:33:00,55.9,29.4,29.96,South,190,0.0,0.0,36,0.00,,---,0.00,VWS V14.01,2013-08-15 09:33:00,
2013-08-15 03:38:00,55.8,29.2,29.96,South,190,0.0,0.0,36,0.00,,---,0.00,VWS V14.01,2013-08-15 09:38:00,
2013-08-15 03:43:00,55.6,29.1,29.96,South,190,0.0,0.0,36,0.00,,---,0.00,VWS V14.01,2013-08-15 09:43:00,
2013-08-15 03:48:00,55.2,28.8,29.96,South,190,0.0,0.0,36,0.00,,---,0.00,VWS V14.01,2013-08-15 09:48:00,
2013-08-15 03:53:00,55.2,28.8,29.96,South,190,0.0,0.0,36,0.00,,---,0.00,VWS V14.01,2013-08-15 09:53:00,
2013-08-15 03:58:00,55.8,29.2,29.96,South,190,0.0,0.0,36,0.00,,---,0.00,VWS V14.01,2013-08-15 09:58:00,
2013-08-15 04:03:00,56.1,29.5,29.96,South,190,0.0,0.0,36,0.00,,---,0.00,VWS V14.01,2013-08-15 10:03:00,
2013-08-15 04:08:00,56.1,28.9,29.96,South,191,0.0,0.0,35,0.00,,---,0.00,VWS V14.01,2013-08-15 10:08:00,
2013-08-15 04:13:00,55.9,28.7,29.96,South,191,0.0,0.0,35,0.00,,---,0.00,VWS V14.01,2013-08-15 10:13:00,
2013-08-15 04:18:00,56.1,28.9,29.96,South,191,0.0,0.0,35,0.00,,---,0.00,VWS V14.01,2013-08-15 10:18:00,
2013-08-15 04:23:00,55.9,28.7,29.96,WSW,258,0.0,0.0,35,0.00,,---,0.00,VWS V14.01,2013-08-15 10:23:00,
2013-08-15 04:28:00,55.8,28.5,29.96,West,274,0.0,0.0,35,0.00,,---,0.00,VWS V14.01,2013-08-15 10:28:00,
2013-08-15 04:33:00,55.4,28.2,29.96,West,274,0.0,0.0,35,0.00,,---,0.00,VWS V14.01,2013-08-15 10:33:00,
2013-08-15 04:38:00,55.2,28.8,29.96,West,274,0.0,0.0,36,0.00,,---,0.00,VWS V14.01,2013-08-15 10:38:00,
2013-08-15 04:43:00,55.2,28.8,29.96,SSW,204,0.0,0.0,36,0.00,,---,0.00,VWS V14.01,2013-08-15 10:43:00,
2013-08-15 04:48:00,55.2,28.8,29.96,SSW,204,0.0,0.0,36,0.00,,---,0.00,VWS V14.01,2013-08-15 10:48:00,
2013-08-15 04:53:00,54.7,28.3,29.96,SSW,208,0.0,0.0,36,0.00,,---,0.00,VWS V14.01,2013-08-15 10:53:00,
2013-08-15 04:58:00,54.7,28.3,29.96,SSW,212,0.0,0.0,36,0.00,,---,0.00,VWS V14.01,2013-08-15 10:58:00,
2013-08-15 05:03:00,54.3,28.0,29.96,SW,222,0.0,0.0,36,0.00,,---,0.00,VWS V14.01,2013-08-15 11:03:00,
2013-08-15 05:08:00,54.0,27.6,29.96,SW,222,0.0,0.0,36,0.00,,---,0.00,VWS V14.01,2013-08-15 11:08:00,
2013-08-15 05:13:00,54.0,28.3,29.96,WSW,241,0.0,0.0,37,0.00,,---,0.00,VWS V14.01,2013-08-15 11:13:00,
2013-08-15 05:18:00,54.1,28.5,29.96,WSW,239,0.0,0.0,37,0.00,,---,0.00,VWS V14.01,2013-08-15 11:18:00,
2013-08-15 05:23:00,54.1,28.5,29.96,SSW,208,0.0,0.0,37,0.00,,---,0.00,VWS V14.01,2013-08-15 11:23:00,
2013-08-15 05:28:00,54.1,28.5,29.96,WSW,240,0.0,3.1,37,0.00,,---,0.00,VWS V14.01,2013-08-15 11:28:00,
2013-08-15 05:33:00,53.8,28.1,29.96,WSW,240,0.0,0.0,37,0.00,,---,0.00,VWS V14.01,2013-08-15 11:33:00,
2013-08-15 05:38:00,53.2,27.7,29.96,WSW,240,0.0,0.0,37,0.00,,---,0.00,VWS V14.01,2013-08-15 11:38:00,
2013-08-15 05:43:00,53.1,27.5,29.96,WSW,240,0.0,0.0,37,0.00,,---,0.00,VWS V14.01,2013-08-15 11:43:00,
2013-08-15 05:48:00,52.9,27.3,29.96,WSW,244,0.0,0.0,37,0.00,,---,0.00,VWS V14.01,2013-08-15 11:48:00,
2013-08-15 05:53:00,52.9,27.3,29.96,WSW,246,0.0,0.0,37,0.00,,---,0.00,VWS V14.01,2013-08-15 11:53:00,
2013-08-15 05:58:00,52.9,27.3,29.96,WSW,249,0.0,0.0,37,0.00,,---,0.00,VWS V14.01,2013-08-15 11:58:00,
2013-08-15 06:03:00,52.5,27.0,29.96,WSW,249,0.0,0.0,37,0.00,,---,0.00,VWS V14.01,2013-08-15 12:03:00,
2013-08-15 06:08:00,52.3,27.5,29.96,West,263,0.0,0.0,38,0.00,,---,0.00,VWS V14.01,2013-08-15 12:08:00,
2013-08-15 06:13:00,52.2,27.3,29.96,West,263,0.0,0.0,38,0.00,,---,0.00,VWS V14.01,2013-08-15 12:13:00,
2013-08-15 06:18:00,51.8,27.0,29.96,West,263,0.0,0.0,38,0.00,,---,0.00,VWS V14.01,2013-08-15 12:18:00,
2013-08-15 06:23:00,51.6,27.5,29.96,West,263,0.0,0.0,39,0.00,,---,0.00,VWS V14.01,2013-08-15 12:23:00,
2013-08-15 06:28:00,51.8,27.0,29.96,West,263,0.0,0.0,38,0.00,,---,0.00,VWS V14.01,2013-08-15 12:28:00,
2013-08-15 06:33:00,51.6,27.5,29.96,West,263,0.0,0.0,39,0.00,,---,0.00,VWS V14.01,2013-08-15 12:33:00,
2013-08-15 06:38:00,51.4,27.3,29.96,West,263,0.0,0.0,39,0.00,,---,0.00,VWS V14.01,2013-08-15 12:38:00,
2013-08-15 06:43:00,51.3,27.2,29.96,West,263,0.0,0.0,39,0.00,,---,0.00,VWS V14.01,2013-08-15 12:43:00,
2013-08-15 06:48:00,51.3,27.8,29.96,WSW,238,0.0,0.0,40,0.00,,---,0.00,VWS V14.01,2013-08-15 12:48:00,
2013-08-15 06:53:00,51.4,27.9,29.96,WSW,238,0.0,0.0,40,0.00,,---,0.00,VWS V14.01,2013-08-15 12:53:00,
2013-08-15 06:58:00,51.6,28.1,29.96,WSW,238,0.0,0.0,40,0.00,,---,0.00,VWS V14.01,2013-08-15 12:58:00,
2013-08-15 07:03:00,51.6,28.1,29.96,WSW,238,0.0,0.0,40,0.00,,---,0.00,VWS V14.01,2013-08-15 13:03:00,
2013-08-15 07:08:00,52.0,27.8,29.99,WSW,251,0.0,0.0,39,0.00,,---,0.00,VWS V14.01,2013-08-15 13:08:00,
2013-08-15 07:13:00,52.9,28.6,29.99,WSW,251,0.0,0.0,39,0.00,,---,0.00,VWS V14.01,2013-08-15 13:13:00,
2013-08-15 07:18:00,53.6,28.6,29.99,WSW,251,0.0,0.0,38,0.00,,---,0.00,VWS V14.01,2013-08-15 13:18:00,
2013-08-15 07:23:00,54.3,29.3,29.99,WSW,251,0.0,0.0,38,0.00,,---,0.00,VWS V14.01,2013-08-15 13:23:00,
2013-08-15 07:28:00,54.3,29.3,29.99,WSW,251,0.0,0.0,38,0.00,,---,0.00,VWS V14.01,2013-08-15 13:28:00,
2013-08-15 07:33:00,54.3,29.3,29.99,South,178,0.0,3.1,38,0.00,,---,0.00,VWS V14.01,2013-08-15 13:33:00,
2013-08-15 07:38:00,54.3,29.3,29.99,SSE,168,3.6,3.6,38,0.00,,---,0.00,VWS V14.01,2013-08-15 13:38:00,
2013-08-15 07:43:00,54.3,29.3,29.99,SSE,168,3.6,3.6,38,0.00,,---,0.00,VWS V14.01,2013-08-15 13:43:00,
2013-08-15 07:48:00,59.2,32.3,29.99,SSE,168,0.0,0.0,36,0.00,,---,0.00,VWS V14.01,2013-08-15 13:48:00,
2013-08-15 07:53:00,59.2,32.3,29.99,SSE,168,0.0,0.0,36,0.00,,---,0.00,VWS V14.01,2013-08-15 13:53:00,
2013-08-15 07:58:00,59.2,32.3,29.99,SSE,168,0.0,0.0,36,0.00,,---,0.00,VWS V14.01,2013-08-15 13:58:00,
2013-08-15 08:03:00,59.2,32.3,29.99,SSE,168,0.0,0.0,36,0.00,,---,0.00,VWS V14.01,2013-08-15 14:03:00,
2013-08-15 08:08:00,59.2,32.3,29.99,SSE,167,0.0,0.0,36,0.00,,---,0.00,VWS V14.01,2013-08-15 14:08:00,
2013-08-15 08:13:00,59.2,32.3,29.99,South,179,2.7,2.7,36,0.00,,---,0.00,VWS V14.01,2013-08-15 14:13:00,
2013-08-15 09:19:00,71.2,33.6,29.99,East,87,0.0,0.0,25,0.00,,---,0.00,VWS V14.01,2013-08-15 15:19:00,
2013-08-15 09:24:00,71.2,33.6,29.99,East,87,0.0,0.0,25,0.00,,---,0.00,VWS V14.01,2013-08-15 15:24:00,
2013-08-15 09:29:00,71.2,33.6,29.99,East,87,0.0,0.0,25,0.00,,---,0.00,VWS V14.01,2013-08-15 15:29:00,
2013-08-15 09:34:00,71.2,33.6,29.99,East,87,0.0,0.0,25,0.00,,---,0.00,VWS V14.01,2013-08-15 15:34:00,
2013-08-15 09:39:00,71.2,33.6,29.99,East,87,0.0,0.0,25,0.00,,---,0.00,VWS V14.01,2013-08-15 15:39:00,
2013-08-15 09:44:00,71.2,33.6,29.99,East,87,0.0,0.0,25,0.00,,---,0.00,VWS V14.01,2013-08-15 15:44:00,
2013-08-15 09:49:00,71.2,33.6,29.99,East,87,0.0,0.0,25,0.00,,---,0.00,VWS V14.01,2013-08-15 15:49:00,
2013-08-15 09:54:00,71.2,33.6,29.99,East,87,0.0,0.0,25,0.00,,---,0.00,VWS V14.01,2013-08-15 15:54:00,
2013-08-15 09:59:00,75.2,32.6,29.99,East,87,0.0,0.0,21,0.00,,---,0.00,VWS V14.01,2013-08-15 15:59:00,
2013-08-15 10:04:00,75.9,33.2,29.99,East,87,0.0,0.0,21,0.00,,---,0.00,VWS V14.01,2013-08-15 16:04:00,
2013-08-15 10:09:00,77.0,32.9,29.99,East,80,0.0,0.0,20,0.00,,---,0.00,VWS V14.01,2013-08-15 16:09:00,
2013-08-15 10:14:00,77.5,33.3,29.99,ENE,61,0.0,0.0,20,0.00,,---,0.00,VWS V14.01,2013-08-15 16:14:00,
2013-08-15 10:19:00,76.8,32.8,29.99,North,353,0.0,0.0,20,0.00,,---,0.00,VWS V14.01,2013-08-15 16:19:00,
2013-08-15 10:25:00,76.3,32.3,29.99,North,353,0.0,0.0,20,0.00,,---,0.00,VWS V14.01,2013-08-15 16:25:00,
2013-08-15 10:30:00,76.3,32.3,29.99,NNE,12,2.7,2.7,20,0.00,,---,0.00,VWS V14.01,2013-08-15 16:30:00,
2013-08-15 10:35:00,76.3,32.3,29.99,NNE,12,2.7,2.7,20,0.00,,---,0.00,VWS V14.01,2013-08-15 16:35:00,
2013-08-15 10:40:00,76.3,32.3,29.99,NNE,12,2.7,2.7,20,0.00,,---,0.00,VWS V14.01,2013-08-15 16:40:00,
2013-08-15 10:45:00,76.3,32.3,29.99,NNE,12,2.7,2.7,20,0.00,,---,0.00,VWS V14.01,2013-08-15 16:45:00,
2013-08-15 10:50:00,76.3,32.3,29.99,NNE,12,2.7,2.7,20,0.00,,---,0.00,VWS V14.01,2013-08-15 16:50:00,
2013-08-15 10:55:00,76.3,32.3,29.99,NNE,16,0.0,2.7,20,0.00,,---,0.00,VWS V14.01,2013-08-15 16:55:00,
2013-08-15 11:00:00,79.2,34.7,29.99,NNE,15,0.0,0.0,20,0.00,,---,0.00,VWS V14.01,2013-08-15 17:00:00,
2013-08-15 11:06:00,79.5,35.0,29.99,NE,44,3.6,3.6,20,0.00,,---,0.00,VWS V14.01,2013-08-15 17:06:00,
2013-08-15 11:11:00,79.5,35.0,29.99,NE,44,3.6,3.6,20,0.00,,---,0.00,VWS V14.01,2013-08-15 17:11:00,
2013-08-15 11:16:00,79.5,35.0,29.99,NE,44,3.6,3.6,20,0.00,,---,0.00,VWS V14.01,2013-08-15 17:16:00,
2013-08-15 11:21:00,79.5,35.0,29.99,NE,44,3.6,3.6,20,0.00,,---,0.00,VWS V14.01,2013-08-15 17:21:00,
2013-08-15 11:26:00,79.9,31.2,29.99,NE,44,3.6,3.6,17,0.00,,---,0.00,VWS V14.01,2013-08-15 17:26:00,
2013-08-15 11:31:00,79.9,31.2,29.99,North,11,0.0,0.0,17,0.00,,---,0.00,VWS V14.01,2013-08-15 17:31:00,
2013-08-15 11:36:00,79.9,31.2,29.96,NE,45,0.0,0.0,17,0.00,,---,0.00,VWS V14.01,2013-08-15 17:36:00,
2013-08-15 11:41:00,79.9,31.2,29.96,NE,51,0.0,2.7,17,0.00,,---,0.00,VWS V14.01,2013-08-15 17:41:00,
2013-08-15 11:46:00,79.9,31.2,29.96,NE,51,0.0,0.0,17,0.00,,---,0.00,VWS V14.01,2013-08-15 17:46:00,
2013-08-15 11:51:00,79.9,31.2,29.96,North,357,2.2,2.7,17,0.00,,---,0.00,VWS V14.01,2013-08-15 17:51:00,
2013-08-15 11:56:00,79.9,31.2,29.96,North,357,2.2,2.7,17,0.00,,---,0.00,VWS V14.01,2013-08-15 17:56:00,
2013-08-15 12:01:00,79.9,31.2,29.96,NE,53,0.0,2.2,17,0.00,,---,0.00,VWS V14.01,2013-08-15 18:01:00,
2013-08-15 12:06:00,79.9,31.2,29.96,NNW,341,3.1,3.1,17,0.00,,---,0.00,VWS V14.01,2013-08-15 18:06:00,
2013-08-15 12:11:00,79.9,31.2,29.96,North,353,2.2,4.5,17,0.00,,---,0.00,VWS V14.01,2013-08-15 18:11:00,
2013-08-15 12:16:00,84.0,29.8,29.96,NE,46,2.7,3.1,14,0.00,,---,0.00,VWS V14.01,2013-08-15 18:16:00,
2013-08-15 12:23:00,84.0,29.8,29.96,North,0,2.2,4.0,14,0.00,,---,0.00,VWS V14.01,2013-08-15 18:23:00,
2013-08-15 12:28:00,84.0,29.8,29.96,ENE,62,3.1,4.0,14,0.00,,---,0.00,VWS V14.01,2013-08-15 18:28:00,
2013-08-15 12:33:00,84.0,29.8,29.96,NE,37,0.0,3.1,14,0.00,,---,0.00,VWS V14.01,2013-08-15 18:33:00,
2013-08-15 12:38:00,84.0,29.8,29.96,North,357,4.0,4.0,14,0.00,,---,0.00,VWS V14.01,2013-08-15 18:38:00,
2013-08-15 12:43:00,84.0,29.8,29.96,NE,56,3.6,4.0,14,0.00,,---,0.00,VWS V14.01,2013-08-15 18:43:00,
2013-08-15 12:48:00,84.0,29.8,29.96,NNE,16,0.0,2.2,14,0.00,,---,0.00,VWS V14.01,2013-08-15 18:48:00,
2013-08-15 12:53:00,84.0,29.8,29.96,NE,44,0.0,2.2,14,0.00,,---,0.00,VWS V14.01,2013-08-15 18:53:00,
2013-08-15 12:58:00,84.0,29.8,29.96,North,6,2.2,2.7,14,0.00,,---,0.00,VWS V14.01,2013-08-15 18:58:00,
2013-08-15 13:03:00,84.0,29.8,29.96,ENE,72,0.0,0.0,14,0.00,,---,0.00,VWS V14.01,2013-08-15 19:03:00,
2013-08-15 13:08:00,87.3,30.5,29.96,ENE,72,0.0,0.0,13,0.00,,---,0.00,VWS V14.01,2013-08-15 19:08:00,
2013-08-15 13:14:00,87.1,30.3,29.96,ENE,72,0.0,0.0,13,0.00,,---,0.00,VWS V14.01,2013-08-15 19:14:00,
2013-08-15 13:19:00,87.3,30.5,29.96,ENE,72,0.0,0.0,13,0.00,,---,0.00,VWS V14.01,2013-08-15 19:19:00,
2013-08-15 13:24:00,87.3,30.5,29.93,ENE,72,0.0,0.0,13,0.00,,---,0.00,VWS V14.01,2013-08-15 19:24:00,
2013-08-15 13:29:00,87.8,30.9,29.93,North,3,2.2,2.2,13,0.00,,---,0.00,VWS V14.01,2013-08-15 19:29:00,
2013-08-15 13:34:00,88.0,31.0,29.93,NE,39,2.2,3.1,13,0.00,,---,0.00,VWS V14.01,2013-08-15 19:34:00,
2013-08-15 13:39:00,89.2,35.6,29.93,NE,56,2.7,3.1,15,0.00,,---,0.00,VWS V14.01,2013-08-15 19:39:00,
2013-08-15 13:44:00,89.8,30.5,29.93,NE,56,2.7,3.1,12,0.00,,---,0.00,VWS V14.01,2013-08-15 19:44:00,
2013-08-15 13:49:00,90.0,30.6,29.93,NE,56,2.7,2.7,12,0.00,,---,0.00,VWS V14.01,2013-08-15 19:49:00,
2013-08-15 13:54:00,90.0,30.6,29.93,NE,56,2.7,2.7,12,0.00,,---,0.00,VWS V14.01,2013-08-15 19:54:00,
2013-08-15 13:59:00,91.2,31.6,29.93,NE,56,2.7,2.7,12,0.00,,---,0.00,VWS V14.01,2013-08-15 19:59:00,
2013-08-15 14:04:00,91.8,32.0,29.93,NE,56,2.7,2.7,12,0.00,,---,0.00,VWS V14.01,2013-08-15 20:04:00,
2013-08-15 14:09:00,92.7,32.7,29.93,NE,56,2.7,2.7,12,0.00,,---,0.00,VWS V14.01,2013-08-15 20:09:00,
2013-08-15 14:14:00,92.1,32.3,29.93,NE,56,2.7,2.7,12,0.00,,---,0.00,VWS V14.01,2013-08-15 20:14:00,
2013-08-15 14:20:00,91.8,32.0,29.91,NE,56,2.7,2.7,12,0.00,,---,0.00,VWS V14.01,2013-08-15 20:20:00,
2013-08-15 14:25:00,93.0,33.0,29.91,NE,56,2.7,2.7,12,0.00,,---,0.00,VWS V14.01,2013-08-15 20:25:00,
2013-08-15 14:30:00,94.1,31.6,29.91,NE,56,2.7,2.7,11,0.00,,---,0.00,VWS V14.01,2013-08-15 20:30:00,
2013-08-15 14:35:00,93.7,31.4,29.93,NE,56,2.7,2.7,11,0.00,,---,0.00,VWS V14.01,2013-08-15 20:35:00,
2013-08-15 14:40:00,93.0,33.0,29.93,NE,56,2.7,2.7,12,0.00,,---,0.00,VWS V14.01,2013-08-15 20:40:00,
2013-08-15 14:45:00,93.6,31.2,29.93,NE,56,2.7,2.7,11,0.00,,---,0.00,VWS V14.01,2013-08-15 20:45:00,
2013-08-15 14:50:00,93.7,31.4,29.91,North,353,0.0,2.7,11,0.00,,---,0.00,VWS V14.01,2013-08-15 20:50:00,
2013-08-15 14:55:00,93.9,31.5,29.91,NE,41,0.0,2.7,11,0.00,,---,0.00,VWS V14.01,2013-08-15 20:55:00,
2013-08-15 15:00:00,93.9,31.5,29.91,NE,41,0.0,0.0,11,0.00,,---,0.00,VWS V14.01,2013-08-15 21:00:00,
2013-08-15 15:05:00,95.5,32.7,29.91,NE,41,0.0,0.0,11,0.00,,---,0.00,VWS V14.01,2013-08-15 21:05:00,
2013-08-15 15:10:00,95.4,32.6,29.91,NE,41,0.0,0.0,11,0.00,,---,0.00,VWS V14.01,2013-08-15 21:10:00,
2013-08-15 15:15:00,97.0,33.8,29.91,NE,41,0.0,0.0,11,0.00,,---,0.00,VWS V14.01,2013-08-15 21:15:00,
2013-08-15 15:20:00,97.5,34.2,29.91,NE,41,0.0,0.0,11,0.00,,---,0.00,VWS V14.01,2013-08-15 21:20:00,
2013-08-15 15:25:00,98.4,34.9,29.91,NE,41,0.0,0.0,11,0.00,,---,0.00,VWS V14.01,2013-08-15 21:25:00,
2013-08-15 15:31:00,98.4,34.9,29.91,NE,41,0.0,0.0,11,0.00,,---,0.00,VWS V14.01,2013-08-15 21:31:00,
2013-08-15 15:36:00,99.9,33.6,29.91,NE,41,0.0,0.0,10,0.00,,---,0.00,VWS V14.01,2013-08-15 21:36:00,
2013-08-15 15:41:00,99.9,33.6,29.91,NE,41,0.0,0.0,10,0.00,,---,0.00,VWS V14.01,2013-08-15 21:41:00,
2013-08-15 15:46:00,99.9,33.6,29.91,NE,41,0.0,0.0,10,0.00,,---,0.00,VWS V14.01,2013-08-15 21:46:00,
2013-08-15 15:51:00,100.0,33.8,29.91,NE,41,0.0,0.0,10,0.00,,---,0.00,VWS V14.01,2013-08-15 21:51:00,
2013-08-15 15:56:00,99.9,33.6,29.91,NE,41,0.0,0.0,10,0.00,,---,0.00,VWS V14.01,2013-08-15 21:56:00,
2013-08-15 16:02:00,100.2,33.9,29.91,South,188,11.0,12.8,10,0.00,,---,0.00,VWS V14.01,2013-08-15 22:02:00,
2013-08-15 16:07:00,99.9,33.6,29.91,SW,215,7.6,12.8,10,0.00,,---,0.00,VWS V14.01,2013-08-15 22:07:00,
2013-08-15 16:12:00,100.2,33.9,29.91,WNW,299,3.1,12.8,10,0.00,,---,0.00,VWS V14.01,2013-08-15 22:12:00,
2013-08-15 16:17:00,100.6,34.2,29.91,NNW,342,0.0,8.7,10,0.00,,---,0.00,VWS V14.01,2013-08-15 22:17:00,
2013-08-15 16:22:00,100.0,33.8,29.91,NW,322,2.7,8.7,10,0.00,,---,0.00,VWS V14.01,2013-08-15 22:22:00,
2013-08-15 16:27:00,100.6,34.2,29.91,NW,305,0.0,8.7,10,0.00,,---,0.00,VWS V14.01,2013-08-15 22:27:00,
2013-08-15 16:32:00,101.1,34.6,29.91,SSW,213,0.0,5.4,10,0.00,,---,0.00,VWS V14.01,2013-08-15 22:32:00,
2013-08-15 16:37:00,101.3,34.7,29.88,SW,229,0.0,5.4,10,0.00,,---,0.00,VWS V14.01,2013-08-15 22:37:00,
2013-08-15 16:42:00,101.3,34.7,29.88,SW,229,0.0,5.4,10,0.00,,---,0.00,VWS V14.01,2013-08-15 22:42:00,
2013-08-15 16:47:00,101.7,35.0,29.88,SW,229,0.0,0.0,10,0.00,,---,0.00,VWS V14.01,2013-08-15 22:47:00,
2013-08-15 16:52:00,101.3,34.7,29.91,SW,229,0.0,0.0,10,0.00,,---,0.00,VWS V14.01,2013-08-15 22:52:00,